Terminal Aerodrome Forecast
Issued by NWS Springfield, MO

Home | Current Version | Previous Version | Text Only | Print | Product List | Glossary On
Versions: 1 2 3 4 5 6 7 8 9 10 11 12 13 14 15 16 17 18 19 20
439
FTUS43 KSGF 211256 AAA
TAFSGF
TAF AMD
KSGF 211256Z 2113/2212 00000KT 5SM BR SCT250
     FM211400 04007KT P6SM SCT090
     FM220000 07007KT P6SM SCT250=

USA.gov is the U.S. government's official web portal to all federal, state and local government web resources and services.